Flag for USA

Past Weather in Queens, New York, USA — Yesterday and Last 2 Weeks

Now
77 °F

Mild.


Feels Like: 78 °F
Forecast: 82 / 75 °F
Wind: No wind

Location: MADIS Weather Station F1075 (APRSWXNET)

Current Time: Jul 7, 2020 at 10:19:59 pm

Latest Report: Jul 7, 2020 at 8:11 pm


Visibility: N/A

Pressure: 29.91 "Hg

Humidity: 90%

Dew Point: 74 °F

Location of QueensLocation

Past Weather in Queens — Graph

°F

Queens Temperature Yesterday

Maximum temperature yesterday: 96 °F (at 2:31 pm)
Minimum temperature yesterday: 71 °F (at 6:11 am)
Average temperature yesterday: 77 °F

High & Low Weather Summary for the Past Weeks

 TemperatureHumidityPressure
High96 °F (Jul 6, 2:31 pm)99% (Jun 28, 12:21 am)29.97 "Hg (Jun 28, 12:21 am)
Low64 °F (Jun 27, 5:41 am)37% (Jun 24, 2:01 pm)29.49 "Hg (Jun 24, 3:31 am)
Average77 °F78%29.71 "Hg
* Reported Jun 22 8:11 pm — Jul 7 8:11 pm, Queens. Weather by CustomWeather, © 2020

Note: Actual official high and low records may vary slightly from our data, if they occured in-between our weather recording intervals... More about our weather records

Queens Weather History for the Previous 24 Hours

Scroll right to see more
 ConditionsComfort  
Time TempWeatherWind HumidityBarometerVisibility
8:11 pm
Tue, Jul 7
77 °FMild.No wind90%29.91 "HgN/A
7:21 pm78 °FMild.1 mph89%29.91 "HgN/A
7:11 pm78 °FMild.1 mph89%29.91 "HgN/A
6:41 pm78 °FMild.No wind87%29.91 "HgN/A
9:11 am77 °FMild.1 mph84%29.96 "HgN/A
8:41 am76 °FMild.1 mph86%29.96 "HgN/A
8:31 am76 °FMild.1 mph85%29.96 "HgN/A
7:31 am75 °FMild.1 mph89%29.96 "HgN/A
7:11 am74 °FMild.1 mph92%29.97 "HgN/A
6:41 am73 °FMild.No wind95%29.96 "HgN/A
6:31 am72 °FMild.No wind95%29.96 "HgN/A
5:41 am72 °FMild.No wind95%29.96 "HgN/A
5:21 am72 °FMild.No wind96%29.96 "HgN/A
5:11 am71 °FCool.No wind96%29.96 "HgN/A
4:11 am71 °FCool.No wind95%29.95 "HgN/A
2:31 am72 °FMild.No wind92%29.96 "HgN/A
2:11 am72 °FMild.No wind92%29.96 "HgN/A
12:31 am72 °FMild.1 mph92%29.97 "HgN/A
11:21 pm
Mon, Jul 6
72 °FMild.1 mph92%29.96 "HgN/A
11:01 pm72 °FMild.No wind92%29.96 "HgN/A
10:31 pm73 °FMild.1 mph92%29.95 "HgN/A
Weather by CustomWeather, © 2020

See weather overview